Regional Weather Roundup
Issued by NWS

Home | Current Version | Previous Version | Text Only | Print | Product List | Glossary On
Versions: 1 2 3 4 5 6 7 8 9 10 11 12 13 14 15 16 17 18 19 20 21 22 23 24 25 26 27 28 29 30 31 32 33 34 35 36 37 38 39 40 41 42 43 44 45 46 47 48 49 50
000
ASCA42 TJSJ 202111
RWRPR
PUERTO RICO/U.S. VIRGIN ISLANDS HOURLY WEATHER ROUNDUP
NATIONAL WEATHER SERVICE SAN JUAN PR
500 PM AST WED AUG 20 2014

PRZ001-004-202200-
PUERTO RICO

CITY           SKY/WX    TMP DP  RH WIND       PRES   REMARKS
SAN JUAN LMM   MOSUNNY   86  77  74 NE14      29.99R HX  97
MAYAGUEZ       PTSUNNY   81  75  83 SE5       30.00S
AGUADILLA      MOSUNNY   82  75  78 E15G21    30.00S
CEIBA          CLOUDY    82  75  78 NE7       30.01R
$$

PRZ006-007-202200-
U.S. VIRGIN ISLANDS

CITY           SKY/WX    TMP DP  RH WIND       PRES   REMARKS
$$

HOURLY WEATHER ROUNDUP FOR THE NEWS MEDIA

CITY           SKY/WX    TMP DP  RH WIND       PRES   REMARKS
MIAMI          PTSUNNY   89  75  63 SE7       30.06S HX  99
ORLANDO        MOSUNNY   95  72  47 NW10      30.03S HX 103
NEW YORK       MOSUNNY   78  58  49 S8        30.01R
NEWARK         MOSUNNY   81  56  42 SE7       29.98R
CHICAGO        PTSUNNY   85  63  47 W13       29.86F
HARTFORD       SUNNY     75  60  59 SE12      30.00R
BOSTON         MOSUNNY   71  60  68 E10       30.03R
DALLAS         MOSUNNY   97  66  36 S15G25    29.90F HX 100
PHILADELPHIA   CLOUDY    84  63  49 S5        29.97R


USA.gov is the U.S. government's official web portal to all federal, state and local government web resources and services.